Las Vegas, NV

12:27 AM PST on December 05, 2016 (GMT -0800)
Nellis Air Force Base

Weather History for KLSV - July, 2014

Change the Weather History Date:

Thursday, July 3, 2014

  Actual Average Record
Temperature  
Mean Temperature 95 °F -  
Max Temperature 107 °F 102 °F 116 °F (2001)
Min Temperature 83 °F 75 °F 69 °F (2004)
Cooling Degree Days 30    
Growing Degree Days 45 (Base 50)    
Moisture  
Dew Point 41 °F    
Average Humidity 14    
Maximum Humidity 21    
Minimum Humidity 8    
Precipitation  
Precipitation 0.00 in - - ()
Sea Level Pressure  
Sea Level Pressure 29.76 in    
Wind  
Wind Speed 9 mph (South)    
Max Wind Speed 21 mph    
Max Gust Speed 29 mph    
Visibility 10 miles    
Events      
Averages and records for this station are not official NWS values.
T = Trace of Precipitation, MM = Missing Value Source: NWS Daily Summary

Daily Weather History Graph

Daily Weather History Graph

Search for Another Location

Airport or City:

Trip Planner

Search our weather history database for the weather conditions in past years. The results will help you decide how hot, cold, wet, or windy it might be!

Date:

Astronomy

Jul. 03, 2014 Rise Set
Actual Time 5:27 AM PDT 8:01 PM PDT
Civil Twilight 4:57 AM PDT 8:31 PM PDT
Nautical Twilight 4:19 AM PDT 9:08 PM PDT
Astronomical Twilight 3:38 AM PDT 9:50 PM PDT
Moon 11:19 AM PDT (7/3) 11:37 PM PDT (7/3)
Length of Visible Light 15h 34m
Length of Day
14h 33m
Waxing Crescent, 34% of the Moon is Illuminated
Jul 3
Waxing Crescent
Jul 5
First Quarter
Jul 12
Full
Jul 18
Last Quarter
Jul 26
New

Hourly Weather History & Observations

Time (PDT) Temp. Dew Point Humidity Pressure Visibility Wind Dir Wind Speed Gust Speed Precip Events Conditions
12:58 AM 92.8 °F 42.8 °F 18% 29.74 in 10.0 mi East 8.1 mph - N/A   Clear
1:58 AM 91.9 °F 41.9 °F 18% 29.74 in 10.0 mi NE 2.3 mph - N/A   Clear
2:58 AM 90.0 °F 40.3 °F 18% 29.74 in 10.0 mi NE 6.9 mph - N/A   Clear
3:58 AM 87.6 °F 40.1 °F 19% 29.75 in 10.0 mi North 5.8 mph - N/A   Clear
4:58 AM 86.0 °F 41.0 °F 20% 29.76 in 10.0 mi NNE 4.6 mph - N/A   Clear
5:58 AM 83.7 °F 39.0 °F 20% 29.78 in 10.0 mi NE 5.8 mph - N/A   Clear
6:58 AM 86.5 °F 41.5 °F 21% 29.81 in 10.0 mi East 1.2 mph - N/A   Clear
7:58 AM 93.2 °F 44.1 °F 18% 29.81 in 10.0 mi WNW 1.2 mph - N/A   Clear
8:58 AM 94.6 °F 49.1 °F 21% 29.82 in 10.0 mi SE 10.4 mph 18.4 mph N/A   Clear
9:58 AM 96.3 °F 50.9 °F 21% 29.81 in 10.0 mi East 10.4 mph - N/A   Clear
10:58 AM 98.1 °F 49.8 °F 19% 29.80 in 10.0 mi East 12.7 mph 19.6 mph N/A   Clear
11:58 AM 100.6 °F 47.8 °F 17% 29.79 in 10.0 mi East 12.7 mph 19.6 mph N/A   Clear
12:58 PM 102.6 °F 48.9 °F 16% 29.77 in 10.0 mi East 16.1 mph 26.5 mph N/A   Clear
1:35 PM 104.0 °F 48.2 °F 15% 29.84 in 10.0 mi SE 15.0 mph 24.2 mph N/A   Clear
1:56 PM 104.0 °F 48.2 °F 15% 29.84 in 10.0 mi South 15.0 mph 23.0 mph N/A   Clear
1:58 PM 104.4 °F 48.7 °F 15% 29.75 in 10.0 mi South 17.3 mph 23.0 mph N/A   Clear
2:07 PM 105.8 °F 48.2 °F 14% 29.84 in 10.0 mi SE 11.5 mph 24.2 mph N/A   Clear
2:26 PM 105.8 °F 48.2 °F 14% 29.83 in 10.0 mi South 11.5 mph 27.6 mph N/A   Clear
2:45 PM 107.6 °F 33.8 °F 8% 29.82 in 10.0 mi South 15.0 mph 27.6 mph N/A   Clear
2:58 PM 107.4 °F 35.1 °F 8% 29.72 in 10.0 mi South 8.1 mph 26.5 mph N/A   Clear
3:47 PM 107.6 °F 35.6 °F 8% 29.79 in 10.0 mi South 16.1 mph 26.5 mph N/A   Clear
3:58 PM 106.9 °F 36.3 °F 9% 29.70 in 10.0 mi SSW 11.5 mph 21.9 mph N/A   Clear
4:44 PM 107.6 °F 33.8 °F 8% 29.77 in 10.0 mi SSW 20.7 mph 28.8 mph N/A   Clear
4:58 PM 106.5 °F 34.3 °F 8% 29.68 in 10.0 mi SW 13.8 mph 25.3 mph N/A   Clear
5:33 PM 105.8 °F 33.8 °F 8% 29.77 in 10.0 mi West 13.8 mph 23.0 mph N/A   Clear
5:44 PM 105.8 °F 33.8 °F 8% 29.76 in 10.0 mi SW 16.1 mph 23.0 mph N/A   Clear
5:58 PM 105.8 °F 33.8 °F 8% 29.68 in 10.0 mi SW 13.8 mph - N/A   Clear
6:11 PM 105.8 °F 37.4 °F 10% 29.76 in 10.0 mi SSW 13.8 mph 21.9 mph N/A   Clear
6:19 PM 105.8 °F 35.6 °F 9% 29.76 in 10.0 mi WSW 17.3 mph 21.9 mph N/A   Clear
6:58 PM 104.9 °F 33.1 °F 8% 29.69 in 10.0 mi WSW 16.1 mph - N/A   Clear
7:58 PM 102.9 °F 31.6 °F 8% 29.69 in 10.0 mi WSW 10.4 mph - N/A   Clear
8:58 PM 99.1 °F 33.6 °F 10% 29.71 in 10.0 mi SW 6.9 mph - N/A   Clear
9:58 PM 97.0 °F 37.0 °F 12% 29.74 in 10.0 mi South 3.5 mph - N/A   Clear
10:58 PM 94.6 °F 36.5 °F 13% 29.75 in 10.0 mi NW 1.2 mph - N/A   Clear
11:58 PM 96.1 °F 45.1 °F 17% 29.76 in 10.0 mi South 11.5 mph - N/A   Clear